www.pogodaiklimat.ru

Погода и климат >> Архив погоды >> Россия >> Чукотка >> Бухта Амбарчик


ПОГОДА в Бухте Амбарчик

  • Прогноз погоды в Бухте Амбарчик
  • Монитор погоды в Бухте Амбарчик
  • Климат города

АРХИВ ПОГОДЫ в Бухте Амбарчик

Время (UTC), дата Ветер
(напр.,м/с)
 
Видим.   Явления Облачность Т
(С)
Тd
(С)
f
(%)
Тe
(С)
Тes
(С)
Комфортность P
(гПа)
Po
(гПа)
Тmin
(С)
Tmax
(С)
R
(мм)
R24
(мм)
S
(см)
09 19.06 СВ 3
{5}
20 км 10/10 200 м
[St]
+4.1 +2.1 87 0 0 1008.7 1005.8 +6.9 0.3
12 19.06 ЮВ 3
{5}
20 км 10/10 200 м
[St]
+3.3 +2.6 95 -1 -1 1007.3 1004.4
15 19.06 СВ 3
{4}
20 км 10/10 100 м
[St]
+3.0 +2.3 95 -1 -1 1006.2 1003.3
18 19.06 С 2
{8}
20 км 10/10 100 м
[St]
+2.4 +1.7 95 -1 -1 1004.8 1001.9
21 19.06 С 2
{5}
20 км 10/10 200 м
[St]
+3.1 +1.8 91 0 0 1003.7 1000.8 +2.2
00 20.06 С 2
{4}
20 км 10/10 200 м
[St]
+4.5 +2.2 85 +2 +2 1002.6 999.7
03 20.06 СВ 4
{7}
20 км 10/10 200 м
[St]
+3.9 +2.2 89 -1 -1 1002.4 999.5
06 20.06 СВ 4
{7}
20 км 10/10 200 м
[St]
+5.0 +3.1 88 +1 +1 1001.6 998.7
09 20.06 В 3
{5}
20 км 10/10 200 м
[St]
+4.8 +2.8 87 +1 +1 1001.9 999.0 +5.2
12 20.06 ЮВ 2
{5}
20 км 10/10 200 м
[St]
+4.1 +3.1 93 +1 +1 1002.3 999.4
15 20.06 Ю 3
{3}
4000 м дымка 10/10 100 м
[St]
+3.2 +2.8 97 -1 -1 1002.6 999.7
18 20.06 Ю 2
{3}
4000 м дымка 10/10 100 м
[St]
+3.4 +3.1 98 0 0 1003.7 1000.8
21 20.06 С 1
{5}
20 км 10/10 300 м
[St]
+6.4 +4.5 88 +5 +5 1004.9 1002.0 +2.5
00 21.06 СЗ 6
{7}
20 км 10/10 200 м
[St]
+5.7 +4.1 89 +1 +1 1006.5 1003.6
03 21.06 С 4
{7}
20 км 10/10 200 м
[St]
+5.2 +3.4 88 +1 +1 1007.3 1004.4
06 21.06 С 3
{6}
20 км 10/10 200 м
[St]
+4.8 +3.0 88 +1 +1 1008.3 1005.4
09 21.06 СВ 2
{6}
20 км 10/10 200 м
[St]
+4.3 +2.8 90 +1 +1 1008.8 1005.9 +7.2
12 21.06 ЮВ 2
{5}
20 км 10/10 200 м
[St]
+4.0 +2.6 91 +1 +1 1009.0 1006.1
15 21.06 В 3
{4}
4000 м дымка 10/10 200 м
[St]
+3.1 +2.7 97 -1 -1 1008.5 1005.6
18 21.06 В 3
{5}
20 км 10/10 200 м
[St]
+3.2 +2.3 94 -1 -1 1008.0 1005.1
21 21.06 С 1
{5}
20 км 10/10 200 м
[St]
+4.1 +2.7 91 +3 +3 1007.6 1004.7 +3.1
00 22.06 С 2
{4}
20 км 10/10 200 м
[St]
+5.1 +3.7 91 +2 +2 1007.2 1004.3
03 22.06 СВ 2
{5}
20 км 10/10 200 м
[St]
+5.8 +4.5 91 +3 +3 1006.9 1004.0
06 22.06 С 2
{3}
20 км 10/10 200 м
[St]
+7.0 +5.0 87 +5 +5 1006.7 1003.9
09 22.06 С 4
{6}
20 км 10/10 200 м
[St]
+5.9 +4.2 89 +2 +2 1007.3 1004.4 +7.0
12 22.06 З 2
{6}
20 км 9/9 300 м
[St]
+5.0 +2.7 85 +2 +2 1007.2 1004.3
15 22.06 ЮЗ 4
{4}
20 км 8/4 300 м
[St Ac trans]
+1.4 +0.7 95 -4 -4 1006.8 1003.9
18 22.06 ЮЗ 6
{7}
20 км 3/0
[Ac trans Ci]
+7.0 +3.4 78 +3 +3 1006.8 1004.0
21 22.06 З 7
{9}
20 км 3/0
[Ci fib]
+11.2 +5.5 68 +8 +10 1006.3 1003.5 +1.0
00 23.06 З 8-10
{10}
20 км 8/0
[Ac trans Ci fib]
+15.6 +3.7 45 +14 +15 1005.1 1002.3
03 23.06 ЮЗ 7-11
{12}
20 км 9/3 1000 м
[Sc Ac trans Ci fib]
+18.3 +4.8 41 +18 +19 1003.5 1000.8
06 23.06 ЮЗ 9-12
{13}
20 км 9/3 600 м
[Sc Ac trans Ci fib]
+19.2 +4.9 39 +19 +19 1001.8 999.1
09 23.06 Ю 7
{12}
20 км 9/3 600 м
[Sc Ac trans Ci sp]
+18.6 +4.7 40 +18 +18 999.8 997.1 +20.0
12 23.06 ЮЗ 10-14
{14}
20 км 9/3 600 м
[Sc Ac trans Ci]
+17.7 +6.0 46 +16 +16 997.8 995.1
15 23.06 ЮЗ 11-15
{16}
20 км 9/8 600 м
[Sc Ac trans]
+17.5 +6.7 49 +16 +16 995.5 992.8
18 23.06 ЮЗ 11-15
{15}
20 км 10/10 600 м
[Sc]
+17.3 +6.8 50 +16 +16 993.5 990.8
21 23.06 ЮЗ 11-15
{16}
20 км 10/10 600 м
[Sc]
+18.1 +8.1 52 +17 +17 992.8 990.1 +16.7
00 24.06 СЗ 5
{15}
20 км 10/10 600 м
[Sc]
+10.4 +8.6 89 +7 +7 994.8 992.0
03 24.06 СВ 8
{10}
4000 м слабая морось 10/10 100 м
[St]
+5.1 +4.4 95 -1 -1 998.1 995.2
06 24.06 СВ 11-13
{14}
4000 м дождь {морось} 10/9 200 м
[Frnb As op]
+4.2 +3.1 93 -3 -3 1000.2 997.3
09 24.06 В 9-12
{14}
4000 м дождь 10/9 200 м
[Frnb As op]
+3.2 +2.2 93 -4 -4 1002.2 999.3 +19.9 0.7
12 24.06 СВ 9-11
{12}
4000 м дождь 10/9 200 м
[Frnb As op]
+2.6 +1.6 93 -5 -5 1005.3 1002.4
15 24.06 С 8-10
{11}
20 км {дождь} 10/10 200 м
[St]
+1.7 -0.7 84 -5 -5 1007.6 1004.7
18 24.06 С 7-10
{12}
4000 м слабый ливневой снег {дождь} 10/10 200 м
[Cb cap]
+0.1 -1.1 92 -7 -7 1010.0 1007.1
21 24.06 С 6
{10}
20 км {ливн. осадки} 8/8 300 м
[St]
+1.3 -1.3 83 -5 -4 1012.0 1009.1 0.0 1
00 25.06 СЗ 5
{8}
20 км {ливн. осадки} 9/9 300 м
[St]
+3.6 +0.1 78 -1 -1 1013.3 1010.4
03 25.06 СЗ 4
{8}
20 км 8/6 300 м
[St Ac trans]
+5.3 -0.2 68 +2 +3 1013.6 1010.7
06 25.06 СЗ 5
{8}
20 км 9/9 300 м
[St]
+5.3 -0.5 66 +1 +1 1013.8 1010.9
09 25.06 СЗ 5
{8}
20 км 9/9 300 м
[St]
+5.3 +0.9 73 +1 +1 1013.9 1011.0 +5.9
12 25.06 Ю 2
{8}
10 км слабый ливневой дождь 10/10 300 м
[Cb cap]
+2.4 +1.3 92 -1 -1 1014.1 1011.2
15 25.06 ЮЗ 4
{5}
20 км {ливн. осадки} 8/8 300 м
[St]
+1.6 +0.6 93 -4 -4 1013.0 1010.1
18 25.06 ЮЗ 6
{8}
20 км {ливн. осадки} 9/6 300 м
[St Ac trans Ci fib]
+4.5 +2.3 86 -1 -1 1011.9 1009.0
21 25.06 З 8-11
{11}
20 км 9/5 600 м
[Sc Ac trans Ci fib]
+7.7 +2.2 68 +3 +3 1010.0 1007.2 +0.7 0.6
00 26.06 З 10-14
{14}
20 км 10/10 300 м
[Sc]
+8.6 +2.9 67 +4 +4 1008.2 1005.4
03 26.06 ЮЗ 10-14
{14}
10 км слабый ливневой дождь 10/10 300 м
[Cb cap]
+7.9 +3.0 71 +3 +3 1006.3 1003.5
06 26.06 ЮЗ 10-15
{16}
10 км слабый ливневой дождь 10/10 300 м
[Cb cap]
+7.6 +4.6 81 +2 +2 1004.2 1001.4

 

Местоположение метеостанции Бухта Амбарчик (Чукотка, Россия): широта 69.62 долгота 162.30 высота над уровнем моря 23 м.

В архиве по умолчанию представлена погода в Бухте Амбарчик за последнюю неделю. Архивные данные за месяц целиком и за предыдущие месяцы, начиная с января 2011 года, Вы можете получить, выбрав интересующий диапазон дат из раскрывающегося списка и нажав кнопку "Ввод!".

Внимание! Время в таблицах - всемирное. Для получения местного времени необходимо прибавить поправку, которая в Бухте Амбарчик равна 12 ч.

Смотрите также архив погоды в соседних городах и на ближайших метеорологических станциях:

Погода в Черском (Якутия, Россия) (107 км)
Погода в Анюйске (Чукотка, Россия) (145 км)
Погода в Раучуе (Чукотка, Россия) (164 км)
Погода в Константиновской (Чукотка, Россия) (170 км)
Погода в Колымской (Якутия, Россия) (177 км)
Погода на Островном (Чукотка, Россия) (182 км)
Погода на Айон Острове (Чукотка, Россия) (218 км)
Погода в Билибино (Чукотка, Россия) (240 км)
Погода в Певеке (Чукотка, Россия) (305 км)
Погода в Андрюшкино (Якутия, Россия) (309 км)

Пояснения к столбцам:

Ветер - указаны скорость ветра в м/с - средняя за 10 мин, порывы в срок и между сроками (в фигурных скобках) и направление, откуда дует ветер: С - северный, СВ - северо-восточный, В - восточный, ЮВ - юго-восточный, Ю - южный, ЮЗ - юго-западный, З - западный, СЗ - северо-западный.
Видимость - горизонтальная дальность видимости в метрах или километрах. При видимости от 1 до 10 км при отсутствии осадков обычно наблюдается дымка, при ухудшении видимости до 1 км и менее - туман. В сухую погоду видимость может ухудшаться дымом, пылью или мглою.
Явления - указаны атмосферные явления, наблюдавшиеся в срок или в последний час перед сроком; фигурными скобками обозначены явления, наблюдавшиеся между сроками (за 1-3 часа до срока); квадратными скобками обозначены град или гололедные отложения с указанием их диаметра в мм.
Облачность - указаны через наклонную черту общая и нижняя облачность в баллах и высота нижней границы облаков в метрах; квадратными скобками обозначены формы облаков: Ci - перистые, Cs - перисто-слоистые, Cc - перисто-кучевые, Ac - высококучевые, As - высокослоистые, Sc - слоисто-кучевые, Ns - слоисто-дождевые, Cu - кучевые, Cb - кучево-дождевые. Подробнее классификацию облаков см. в Атласе облаков (PDF).
T - Температура воздуха - температура, измеренная на высоте 2 м над землей.
Td - Температура точки росы - температура, при понижении до которой содержащийся в воздухе водяной пар достигнет насыщения.
f - Относительная влажность воздуха - влажноcть воздуха, измеренная на высоте 2 м над землей.
Te - Эффективная температура - температура, которую ощущает одетый по сезону человек в тени. Характеристика душности погоды. При расчете учитывается влияние влажности воздуха и скорости ветра на теплоощущения человека.
Tes - Эффективная температура на солнце - температура, которую ощущает человек, с поправкой на солнечный нагрев. Характеристика знойности погоды. Зависит от высоты солнца над горизонтом, облачности и скорости ветра. Ночью, в пасмурную погоду, а также при ветре 12 м/с и более поправка равна нулю.
P - Атмосферное давление - приведенное к уровню моря атмосферное давление.
Po - Атмосферное давление - измеренное на уровне метеостанции атмосферное давление.
Tmin - Минимальная температура - минимум температуры воздуха на высоте 2 м над землей.
Tmax - Максимальная температура - максимум температуры воздуха на высоте 2 м над землей.
R - Количество осадков - Количество выпавших осадков за период времени, мм. При наведении курсора мыши на число - период времени, за который выпало указанное количество осадков.
R24 - Количество осадков - Количество выпавших осадков за 24 часа, мм.
S - Снежный покров - Высота снежного покрова, см. При наведении курсора мыши на число - состояние снежного покрова и степень покрытия местности в баллах.